Location: ????????
(55.3975°N, 38.2844°E)
Time: 05:02:25
(UTC+00:00)

BlueWalker 3 - Pass Details

Date: 15 August 2024
Orbit: 476 x 487 km, 53.2° (Epoch: 08 September)

Event Time Altitude Azimuth Distance (km) Brightness Sun altitude
Exits shadow 21:55:45 16° 102° (ESE) 1,333 4.0 -20.7°
Drops below altitude 10° 21:56:52 10° 91° (E) 1,688 4.7 -20.7°
Sets 21:59:15 0° 79° (E) 2,574 5.8 -20.7°
